De Queen, AR

11:14 AM CDT on October 14, 2019 (GMT -0500)
Helms Sevier County

Weather History for KDEQ - August, 2019

Change the Weather History Date:

Monday, August 5, 2019

  Actual Average Record
Temperature  
Mean Temperature 82 °F -  
Max Temperature 93 °F - 109 °F (1956)
Min Temperature 72 °F - 54 °F (1976)
Cooling Degree Days 18    
Growing Degree Days 32 (Base 50)    
Moisture  
Dew Point 75 °F    
Average Humidity 93    
Maximum Humidity 100    
Minimum Humidity 54    
Precipitation  
Precipitation 0.00 in - 1.13 in (1994)
Sea Level Pressure  
Sea Level Pressure 29.93 in    
Wind  
Wind Speed 0 mph ()    
Max Wind Speed 6 mph    
Max Gust Speed -    
Visibility 3.4 miles    
Events Fog    
T = Trace of Precipitation, MM = Missing Value Source: Averaged Metar Reports

Daily Weather History Graph

Daily Weather History Graph

Search for Another Location

Airport or City:

Astronomy

Aug. 05, 2019 Rise Set
Actual Time 6:31 AM CDT 8:15 PM CDT
Civil Twilight 6:04 AM CDT 8:42 PM CDT
Nautical Twilight 5:31 AM CDT 9:14 PM CDT
Astronomical Twilight 4:57 AM CDT 9:49 PM CDT
Moon 11:35 AM CDT (8/5) 11:42 PM CDT (8/5)
Length of Visible Light 14h 37m
Length of Day
13h 43m
Waxing Crescent, 28% of the Moon is Illuminated
Aug 5
Waxing Crescent
Aug 7
First Quarter
Aug 15
Full
Aug 23
Last Quarter
Aug 30
New

Hourly Weather History & Observations

Time (CDT) Temp. Heat Index Dew Point Humidity Pressure Visibility Wind Dir Wind Speed Gust Speed Precip Events Conditions
12:18 AM 75.9 °F - 75.9 °F 100% 29.95 in 1.0 mi Calm Calm - N/A   Mist
12:27 AM 75.0 °F - 75.0 °F 100% 29.94 in 0.8 mi Calm Calm - N/A   Mist
12:53 AM 75.0 °F - 75.0 °F 100% 29.93 in 0.2 mi Calm Calm - N/A Fog Fog
1:24 AM 75.0 °F - 75.0 °F 100% 29.95 in 1.0 mi Calm Calm - N/A   Mist
1:27 AM 75.0 °F - 75.0 °F 100% 29.95 in 2.0 mi Calm Calm - N/A   Scattered Clouds
1:53 AM 75.0 °F - 75.0 °F 100% 29.93 in 1.2 mi Calm Calm - N/A   Clear
2:04 AM 75.0 °F - 75.0 °F 100% 29.94 in 3.0 mi Calm Calm - N/A   Clear
2:13 AM 73.9 °F - 73.9 °F 100% 29.95 in 1.8 mi Calm Calm - N/A   Clear
2:31 AM 73.9 °F - 73.9 °F 100% 29.95 in 3.0 mi Calm Calm - N/A   Clear
2:48 AM 73.4 °F - 73.4 °F 100% 29.94 in 2.0 mi Calm Calm - N/A   Clear
2:53 AM 73.9 °F - 73.9 °F 100% 29.93 in 2.5 mi Calm Calm - N/A   Clear
3:02 AM 73.9 °F - 73.9 °F 100% 29.94 in 0.8 mi Calm Calm - N/A   Clear
3:09 AM 73.9 °F - 73.9 °F 100% 29.94 in 0.8 mi Calm Calm - N/A   Mist
3:13 AM 73.9 °F - 73.9 °F 100% 29.94 in 1.2 mi Calm Calm - N/A   Clear
3:24 AM 73.0 °F - 73.0 °F 100% 29.94 in 0.5 mi Calm Calm - N/A Fog Fog
3:53 AM 73.0 °F - 73.0 °F 100% 29.93 in 0.2 mi Calm Calm - N/A Fog Fog
4:09 AM 73.0 °F - 73.0 °F 100% 29.94 in 0.5 mi Calm Calm - N/A Fog Fog
4:25 AM 73.0 °F - 73.0 °F 100% 29.94 in 1.0 mi Calm Calm - N/A   Clear
4:49 AM 73.4 °F - 73.4 °F 100% 29.94 in 0.5 mi Calm Calm - N/A Fog Fog
4:53 AM 73.0 °F - 73.0 °F 100% 29.93 in 1.0 mi Calm Calm - N/A   Clear
4:59 AM 73.0 °F - 73.0 °F 100% 29.94 in 3.0 mi Calm Calm - N/A   Clear
5:09 AM 73.0 °F - 73.0 °F 100% 29.94 in 1.2 mi Calm Calm - N/A   Clear
5:17 AM 72.0 °F - 72.0 °F 100% 29.95 in 0.5 mi Calm Calm - N/A Fog Fog
5:31 AM 72.0 °F - 72.0 °F 100% 29.95 in 2.0 mi Calm Calm - N/A   Clear
5:44 AM 72.0 °F - 72.0 °F 100% 29.95 in 0.8 mi Calm Calm - N/A   Mist
5:53 AM 72.0 °F - 72.0 °F 100% 29.94 in 0.5 mi Calm Calm - N/A Fog Fog
6:25 AM 72.0 °F - 72.0 °F 100% 29.96 in 0.2 mi Calm Calm - N/A Fog Fog
6:53 AM 72.0 °F - 72.0 °F 100% 29.95 in 0.2 mi Calm Calm - N/A Fog Fog
7:12 AM 73.0 °F - 73.0 °F 100% 29.97 in 1.0 mi Calm Calm - N/A   Overcast
7:45 AM 73.9 °F - 73.9 °F 100% 29.98 in 2.5 mi Calm Calm - N/A   Mostly Cloudy
7:53 AM 75.0 °F - 75.0 °F 100% 29.96 in 4.0 mi Calm Calm - N/A   Mostly Cloudy
8:53 AM 81.0 °F 87.9 °F 77.0 °F 88% 29.96 in 9.0 mi Calm Calm - N/A   Clear
9:53 AM 84.9 °F 95.3 °F 77.0 °F 77% 29.97 in 10.0 mi Variable 3.5 mph - N/A   Overcast
10:53 AM 86.0 °F 96.9 °F 77.0 °F 74% 29.98 in 10.0 mi ENE 3.5 mph - N/A   Overcast
11:53 AM 89.1 °F 100.2 °F 75.9 °F 65% 29.97 in 10.0 mi Variable 3.5 mph - N/A   Clear
12:53 PM 89.1 °F 98.0 °F 73.9 °F 61% 29.95 in 10.0 mi Calm Calm - N/A   Mostly Cloudy
1:53 PM 89.1 °F 98.0 °F 73.9 °F 61% 29.94 in 10.0 mi SW 3.5 mph - N/A   Partly Cloudy
2:53 PM 90.0 °F 102.5 °F 77.0 °F 65% 29.93 in 10.0 mi Variable 3.5 mph - N/A   Partly Cloudy
3:53 PM 91.0 °F 101.6 °F 75.0 °F 59% 29.91 in 10.0 mi Calm Calm - N/A   Clear
4:53 PM 93.0 °F 103.2 °F 73.9 °F 54% 29.90 in 10.0 mi Calm Calm - N/A   Clear
5:53 PM 91.9 °F 101.3 °F 73.9 °F 55% 29.89 in 10.0 mi SSE 3.5 mph - N/A   Scattered Clouds
6:53 PM 88.0 °F 103.1 °F 79.0 °F 75% 29.88 in 10.0 mi WSW 5.8 mph - N/A   Clear
7:53 PM 84.9 °F 98.9 °F 80.1 °F 85% 29.88 in 10.0 mi Calm Calm - N/A   Clear
8:53 PM 80.1 °F 87.4 °F 80.1 °F 100% 29.89 in 6.0 mi Calm Calm - N/A   Clear
9:53 PM 79.0 °F - 79.0 °F 100% 29.90 in 5.0 mi Calm Calm - N/A   Clear
10:02 PM 78.1 °F - 78.1 °F 100% 29.92 in 1.8 mi Calm Calm - N/A   Partly Cloudy
10:08 PM 78.1 °F - 78.1 °F 100% 29.92 in 0.8 mi Calm Calm - N/A   Mist
10:18 PM 78.1 °F - 78.1 °F 100% 29.92 in 1.0 mi Calm Calm - N/A   Mist
10:25 PM 78.1 °F - 78.1 °F 100% 29.92 in 1.5 mi Calm Calm - N/A   Partly Cloudy
10:29 PM 78.1 °F - 78.1 °F 100% 29.92 in 3.0 mi Calm Calm - N/A   Partly Cloudy
10:53 PM 78.1 °F - 78.1 °F 100% 29.90 in 4.0 mi Calm Calm - N/A   Clear
11:01 PM 77.0 °F - 77.0 °F 100% 29.91 in 1.8 mi Calm Calm - N/A   Clear
11:10 PM 77.0 °F - 77.0 °F 100% 29.91 in 2.0 mi Calm Calm - N/A   Clear
11:20 PM 77.0 °F - 77.0 °F 100% 29.91 in 1.0 mi Calm Calm - N/A   Clear
11:22 PM 77.0 °F - 77.0 °F 100% 29.91 in 0.8 mi Calm Calm - N/A   Mist
11:42 PM 77.0 °F - 77.0 °F 100% 29.91 in 1.2 mi Calm Calm - N/A   Partly Cloudy
11:51 PM 77.0 °F - 77.0 °F 100% 29.91 in 4.0 mi Calm Calm - N/A   Partly Cloudy
11:53 PM 77.0 °F - 77.0 °F 100% 29.90 in 4.0 mi Calm Calm - N/A   Clear